www.pogodaiklimat.ru

Погода и климат >> Архив погоды >> Гондурас >> La Esperanza


ПОГОДА в La Esperanza

  • Прогноз погоды в La Esperanza
  • Монитор погоды в La Esperanza
  • Климат города

АРХИВ ПОГОДЫ в La Esperanza

Время (UTC), дата Ветер
(напр.,м/с)
 
Видим.   Явления Облачность Т
(С)
Тd
(С)
f
(%)
Тe
(С)
Тes
(С)
Комфортность P
(гПа)
Po
(гПа)
Тmin
(С)
Tmax
(С)
R
(мм)
R24
(мм)
S
(см)
00 14.06 штиль 0 5000 м {гроза, дождь} 10/3 480 м
[Cb cap Ac cuf Ci ing]
+17.3 +16.0 92 +17 +17 1012.5 835.2 +14.7 +23.6 20
12 14.06 штиль 0 <100 м туман ?/? +15.2 +15.2 100 +15 +15 1013.8 866.3 +15.2 +23.6 2
15 14.06 штиль 0 20 км 6/1 660 м
[Cu hum Ac trans Ci fib]
+21.8 +18.1 80 +27 +37 душно 1012.0 836.5
18 14.06 В 1 10 км 6/4 720 м
[Cu med, cong Ac trans Ci fib]
+24.2 +17.1 65 +28 +41 душно 1010.9 836.0 +15.2 +24.2
00 15.06 штиль 0 10 км гроза, ливневой дождь 9/8 300 м
[Cb cap Ac cuf Ci ing]
+17.4 +17.1 98 +17 +17 1012.7 835.4 +15.2 +24.6 2
12 15.06 штиль 0 2000 м дымка 8/1 120 м
[Sc diur, vesp Ac trans Cs]
+14.6 +14.3 98 +14 +14 1012.3 835.0 +14.6 +24.6 30
15 15.06 штиль 0 20 км {туман} 6/1 720 м
[Cu hum Ac trans Cs]
+20.4 +17.8 85 +24 +34 комфорт 1011.0 835.7
18 15.06 Ю 1 20 км {туман} 9/4 720 м
[Cu med, cong Ac trans Ci fib]
+23.0 +14.8 60 +27 +36 душно 1010.5 835.8 +14.6 +23.0
21 15.06 СВ 1 8000 м гроза, ливневой дождь 9/8 660 м
[Cb cap Ac cuf Ci ing]
+18.6 +17.9 96 +21 +23 комфорт 1011.3 834.9 1
00 16.06 штиль 0 10 км гроза, ливневой дождь 9/8 600 м
[Cb cap Ac cuf Ci ing]
+17.0 +16.7 98 +17 +17 1011.6 834.5 +14.6 +24.5 32
12 16.06 штиль 0 <100 м туман ?/? +14.2 +14.2 100 +14 +14 1012.6 835.3 +14.2 +24.5 0.2
15 16.06 Ю 1 20 км 9/4 660 м
[Cu hum Ac trans Cs]
+19.2 +17.5 90 +22 +27 комфорт 1012.3 836.1
21 16.06 Ю 2 20 км 9/6 720 м
[Cb cap Ac As Ci ing]
+21.8 +17.1 75 +26 +29 душно 1009.6 834.5
00 17.06 штиль 0 10 км гроза без осадков {дождь} 9/8 600 м
[Cb cap Ac cuf Ci ing]
+19.0 +18.7 98 +21 +21 комфорт 1011.0 834.6 +14.2 +23.0 0.7
12 17.06 штиль 0 8000 м дымка 9/0 2000 м
[Ac trans Cs]
+14.4 +14.4 100 +14 +14 1014.0 837.7 +14.0 +23.0 11
15 17.06 С 1 10 км 6/1 720 м
[Cu hum Ac trans Cs]
+20.8 +17.2 80 +26 +35 душно 1013.9 838.4
18 17.06 СВ 2 10 км 6/0 720 м
[As trans]
+23.2 +16.0 64 +28 +28 душно 1013.9 838.6 +14.0 +22.4
21 17.06 СВ 2 20 км 6/6 720 м
[Cb cap As op Ci ing]
+22.2 +16.7 71 +27 +31 душно 1012.7 837.1
00 18.06 СВ 1 20 км гроза без осадков {дождь} 8/4 600 м
[Cb cap Ac As Ci ing]
+18.2 +17.0 93 +20 +20 1014.6 837.0 +23.5 2
12 18.06 С 2 20 км 8/0
[Ac trans Cs]
+14.0 +13.7 98 +13 +14 1015.9 1013.8 +14.0 +23.5 16
18 18.06 СВ 1 20 км 4/1 720 м
[Cu hum Cc]
+24.4 +14.7 55 +27 +48 жарко 1013.3 838.0 +14.0 +24.4
21 18.06 СВ 1 20 км 4/4 720 м
[Cu med, cong Ci fib]
+24.2 +17.1 65 +28 +36 душно 1010.8 836.9
00 19.06 СВ 1 20 км гроза без осадков 4/4 720 м
[Cb cap Ac As Ci ing]
+19.0 +17.0 88 +22 +22 комфорт 1014.0 837.2 +14.0 +26.0 0.3
12 19.06 штиль 0 10 км 3/3 660 м
[Sc diur, vesp Ac trans Ci fib]
+13.4 +13.1 98 +13 +13 1015.4 838.2 +13.4 +26.0
15 19.06 СВ 1 20 км 4/4 720 м
[Cu hum Ci fib]
+22.8 +16.2 66 +27 +36 душно 1013.3 838.1
18 19.06 СВ 1 20 км 4/4 720 м
[Cu med, cong Ci fib]
+24.6 +14.3 53 +27 +42 жарко 1013.3 838.0 +13.4 +24.6
21 19.06 СВ 2 20 км 4/4 720 м
[Cu med, cong Ci fib]
+22.2 +18.3 79 +27 +34 душно 1012.7 837.0
00 20.06 СВ 2 20 км в посл. час гроза {дождь} 8/8 720 м
[Sc diur, vesp As op Ci fib]
+19.6 +17.3 87 +23 +23 комфорт 1014.0 837.1 +13.4 +25.5 4
12 20.06 штиль 0 <100 м туман 1/1 540 м
[Sc]
+13.2 +13.0 99 +13 +13 1013.7 836.2 +12.8 +25.5 0.4
15 20.06 штиль 0 20 км мгла {туман} 9/1 660 м
[Cu hum Cs]
+21.0 +15.7 72 +24 +36 комфорт 1011.7 836.2
18 20.06 ЮЗ 3 20 км {туман} 9/6 720 м
[Cu med, cong Ci fib]
+23.4 +17.0 67 +29 +35 душно 1011.2 835.9 +12.8 +23.4
21 20.06 З 3 20 км гроза без осадков 9/9 720 м
[Cb cap Ci ing]
+20.1 +16.2 78 +23 +24 комфорт 1012.0 835.4

 

Местоположение метеостанции La Esperanza (Гондурас): широта 14.32 долгота -88.16 высота над уровнем моря 1674 м.

В архиве по умолчанию представлена погода в La Esperanza за последнюю неделю. Архивные данные за месяц целиком и за предыдущие месяцы, начиная с января 2011 года, Вы можете получить, выбрав интересующий диапазон дат из раскрывающегося списка и нажав кнопку "Ввод!".


*Определитесь, кто Вы:
робот инопланетянин человек

Внимание! Время в таблицах - всемирное. Для получения местного времени необходимо прибавить поправку, которая в La Esperanza равна -6 ч.

Смотрите также архив погоды в соседних городах и на ближайших метеорологических станциях:

Погода в Santa Rosa De Copan (Гондурас) (84 км)
Погода в Tegucigalpa (Гондурас) (107 км)
Погода в Nueva Ocotepeque (Гондурас) (111 км)
Погода в La Mesa (Гондурас) (128 км)
Погода в Amapala (Гондурас) (129 км)
Погода в Yoro (Гондурас) (147 км)
Погода в Choluteca (Гондурас) (155 км)
Погода в Puerto Barrios (Гватемала) (163 км)
Погода в Tela (Гондурас) (172 км)
Погода в La Ceiba (Гондурас) (210 км)

Пояснения к столбцам:

Ветер - указаны скорость ветра в м/с - средняя за 10 мин, порывы в срок и между сроками (в фигурных скобках) и направление, откуда дует ветер: С - северный, СВ - северо-восточный, В - восточный, ЮВ - юго-восточный, Ю - южный, ЮЗ - юго-западный, З - западный, СЗ - северо-западный.
Видимость - горизонтальная дальность видимости в метрах или километрах. При видимости от 1 до 10 км при отсутствии осадков обычно наблюдается дымка, при ухудшении видимости до 1 км и менее - туман. В сухую погоду видимость может ухудшаться дымом, пылью или мглою.
Явления - указаны атмосферные явления, наблюдавшиеся в срок или в последний час перед сроком; фигурными скобками обозначены явления, наблюдавшиеся между сроками (за 1-3 часа до срока); квадратными скобками обозначены град или гололедные отложения с указанием их диаметра в мм.
Облачность - указаны через наклонную черту общая и нижняя облачность в баллах и высота нижней границы облаков в метрах; квадратными скобками обозначены формы облаков: Ci - перистые, Cs - перисто-слоистые, Cc - перисто-кучевые, Ac - высококучевые, As - высокослоистые, Sc - слоисто-кучевые, Ns - слоисто-дождевые, Cu - кучевые, Cb - кучево-дождевые. Подробнее классификацию облаков см. в Атласе облаков (PDF).
T - Температура воздуха - температура, измеренная на высоте 2 м над землей.
Td - Температура точки росы - температура, при понижении до которой содержащийся в воздухе водяной пар достигнет насыщения.
f - Относительная влажность воздуха - влажноcть воздуха, измеренная на высоте 2 м над землей.
Te - Эффективная температура - температура, которую ощущает одетый по сезону человек в тени. Характеристика душности погоды. При расчете учитывается влияние влажности воздуха и скорости ветра на теплоощущения человека.
Tes - Эффективная температура на солнце - температура, которую ощущает человек, с поправкой на солнечный нагрев. Характеристика знойности погоды. Зависит от высоты солнца над горизонтом, облачности и скорости ветра. Ночью, в пасмурную погоду, а также при ветре 12 м/с и более поправка равна нулю.
P - Атмосферное давление - приведенное к уровню моря атмосферное давление.
Po - Атмосферное давление - измеренное на уровне метеостанции атмосферное давление.
Tmin - Минимальная температура - минимум температуры воздуха на высоте 2 м над землей.
Tmax - Максимальная температура - максимум температуры воздуха на высоте 2 м над землей.
R - Количество осадков - Количество выпавших осадков за период времени, мм. При наведении курсора мыши на число - период времени, за который выпало указанное количество осадков.
R24 - Количество осадков - Количество выпавших осадков за 24 часа, мм.
S - Снежный покров - Высота снежного покрова, см. При наведении курсора мыши на число - состояние снежного покрова и степень покрытия местности в баллах.